COSMOS 2251 DEB, 36423

Orbit data source: Space-Track

COSMOS 2251 DEB, 36423 is space debris in LEO originally from a launch on Wed, 16 Jun 1993 UTC launched from the Plesetsk Missile And Space Complex (PKMTR). The debris from Iridium 33, an American commercial communications satellite, has been tracked extensively since its accidental collision with the defunct Russian satellite Cosmos 2251 in 2009. This event, occurring at high speed in low Earth orbit (LEO), generated thousands of pieces of space debris, significantly increasing the risk of further collisions. The Iridium 33 debris cloud has impacted space traffic management and orbital debris mitigation strategies, making it a subject of ongoing study in space situational awareness.

Loading next visibility...
Identifier
36423, 1993-036AZW
Orbit
LEO
Country
Flag of CISCIS
Related business
Manufacturer
Unknown
Mission
Spacecraft
Bus & Motor
Unknown
Mass
Unknown
Launch date (UTC)
1993-06-16 (33 years ago)
Launch vehicle
Unknown
Launch site
Plesetsk Missile And Space Complex (PKMTR)
Object type
Payload
Rocket body
Debris
Shape & HBR
Unknown shape, 0.1 m
Radar Cross Section
Small (<0.1 m²)

Expand to show TLE details & history
Last TLE update: 3 weeks ago

TLE from 3 weeks ago
0 COSMOS 2251 DEB
1 36423U 93036AZW 26189.62229832  .00081890  00000-0  42287-2 0  9990
2 36423  73.7702 150.3134 0046006 116.5664 244.0256 15.14970071281502
Epoch: 2026-07-08T14:56Z
TLE epoch observation values (Epoch: 2026-07-08T14:56:06.574Z)
Latitude
-0.00001°
Longitude
-0.28993°
Altitude
537.781 km
Speed
7.586 km/s
True Right ascension
10h 01m 15s
True Declination
0° 00' 00"
Sunlit
Object was in daylight at epoch
Visualization orbit readout
Latitude
Unknown
Longitude
Unknown
Altitude
Unknown
Speed
Unknown
Apparent Right ascension
Unknown
Apparent Declination
Unknown
Sunlit
N/A
Visualization observer readout
Local Sidereal Time
00:11:28
Azimuth
Unknown
Elevation
Unknown
Doppler factor
Unknown
Orbital elements
Apogee altitude
550.36 km
Perigee altitude
486.901 km
Semi-major axis
6,896.767 km
Eccentricity
0.0046
Inclination
73.7702°
RAAN
150.3134°
Arg. of periapsis
116.5664°
True anomaly
243.55286°
Mean anomaly
244.0256°
Eccentric anomaly
243.78911°
Mean motion
3.78944 °/min
Orbital period
95 mins
BSTAR
0.0042287

Documentation

Showing up to 5 results
|